Regional Weather Roundup
Issued by NWS Raleigh/Durham, NC

Home | Current Version | Previous Version | Text Only | Print | Product List | Glossary On
Versions: 1 2 3 4 5 6 7 8 9 10 11 12 13 14 15 16 17 18 19 20 21 22 23 24 25 26 27
000
ASUS42 KRAH 010710
RWRRAH
NORTH CAROLINA WEATHER ROUNDUP
NATIONAL WEATHER SERVICE RALEIGH NC
300 AM EDT SAT NOV 01 2014

NOTE: "FAIR" INDICATES FEW OR NO CLOUDS BELOW 12,000 FEET WITH NO
SIGNIFICANT WEATHER AND/OR OBSTRUCTIONS TO VISIBILITY.

NCZ001-053-055-056-065-067-010800-
WESTERN NORTH CAROLINA

CITY           SKY/WX    TMP DP  RH WIND       PRES   REMARKS
ASHEVILLE      LGT SNOW  33  31  92 N16       29.79F FOG     WCI  23
JEFFERSON      CLOUDY    33  26  75 NW8G22    29.74R WCI  26
MORGANTON      LGT RAIN  42  36  80 CALM      29.80F
HICKORY        LGT RAIN  40  36  86 N6        29.75F
RUTHERFORDTON  CLOUDY    43  31  62 NW7       29.76F
MOUNT AIRY     LGT RAIN  43  40  90 N3        29.77F
BOONE          LGT SNOW  31  31  98 NW14G24   29.75F WCI  21
$$

NCZ021-022-025-041-071-084-088-010800-
CENTRAL NORTH CAROLINA

CITY           SKY/WX    TMP DP  RH WIND       PRES   REMARKS
CHARLOTTE      LGT RAIN  46  42  86 N6        29.74F
GREENSBORO     LGT RAIN  44  42  93 N6        29.73F
WINSTON-SALEM  CLOUDY    44  41  89 N9        29.75S
RALEIGH-DURHAM LGT RAIN  48  45  89 CALM      29.75F FOG
FORT BRAGG     LGT RAIN  49  46  87 N5        29.74S
FAYETTEVILLE   LGT RAIN  50  46  86 W7        29.74R FOG
BURLINGTON     LGT RAIN  46  43  89 N6        29.74F
LAURINBURG     CLOUDY    49  47  93 NE8       29.72F
$$

NCZ011-015-027-028-043-044-047-080-103-010800-
NORTHEASTERN NORTH CAROLINA

CITY           SKY/WX    TMP DP  RH WIND       PRES   REMARKS
ROCKY MT-WILSO CLEAR     42  40  92 NE5       29.74F
GREENVILLE       N/A     41  41 100 CALM      29.76F FOG
WASHINGTON     CLEAR     41  39  94 CALM      29.73F
ELIZABETH CITY CLEAR     47  41  80 NW7       29.71F
MANTEO         CLEAR     53  46  76 N7        29.69F
CAPE HATTERAS  CLEAR     54  49  83 VRB5      29.68F
$$

NCZ078-087-090-091-093-098-101-010800-
SOUTHEASTERN NORTH CAROLINA

CITY           SKY/WX    TMP DP  RH WIND       PRES   REMARKS
LUMBERTON      LGT RAIN  50  48  93 N7        29.72F
GOLDSBORO      CLOUDY    44  43  97 CALM      29.71F
KINSTON        CLOUDY    39  38  97 CALM      29.73F FOG
KENANSVILLE    CLOUDY    41  41  99 CALM      29.73F
NEW BERN       CLEAR     45  41  86 CALM      29.73F
CHERRY POINT   NOT AVBL
BEAUFORT       CLEAR     49  45  86 CALM      29.71F
JACKSONVILLE   CLEAR     45  43  93 CALM      29.72F
WILMINGTON     PTCLDY    46  43  89 NE6       29.71F
$$




USA.gov is the U.S. government's official web portal to all federal, state and local government web resources and services.